Latest Weather Observations for Minnipa RS

IDS60801

Issued at 10:31 pm CDT Saturday 20 December 2014 (issued every 30 minutes, with the page automatically refreshed every 10 minutes)

About weather observations | Map of weather stations | Latest weather observations for SA | Other Formats
Station Details ID: 018195 Name: MINNIPA PIRSA Lat: -32.84 Lon: 135.15 Height: 165.0 m
Data from the previous 72 hours. | See also: Recent months at Minnipa RS
Date/Time
CDT
Temp
°C
App
Temp
°C
Dew
Point
Rel
Hum
%
Delta-T
°C
Wind Press
QNH
hPa
Press
MSL
hPa
Rain
since 9 am
mm
Dir
 
Spd
km/h
Gust
km/h
Spd
kts
Gust
kts
20/10:30pm 23.8 19.6 7.4 35 8.7 SE 19 26 10 14 1011.5 - 0.0
20/10:00pm 25.3 20.5 7.4 32 9.5 SSE 22 30 12 16 1011.6 - 0.0
20/09:30pm 26.7 22.3 6.7 28 10.6 SSE 19 30 10 16 1011.7 - 0.0
20/09:00pm 26.8 22.0 4.6 24 11.3 S 19 24 10 13 1011.6 1011.0 0.0
20/08:30pm 28.2 22.7 3.8 21 12.4 S 22 33 12 18 1011.6 - 0.0
20/08:00pm 30.1 23.8 4.0 19 13.5 SSW 26 32 14 17 1011.2 - 0.0
20/07:30pm 33.5 29.8 0.2 12 16.5 NNE 9 17 5 9 1010.9 - 0.0
20/07:00pm 34.4 30.7 -0.3 11 17.1 NW 9 17 5 9 1010.8 - 0.0
20/06:30pm 34.2 30.6 0.8 12 16.7 SSE 9 15 5 8 1010.8 - 0.0
20/06:00pm 34.1 30.5 0.7 12 16.7 NE 9 13 5 7 1011.0 1010.4 0.0
20/05:30pm 34.8 30.9 1.2 12 17.0 SW 11 19 6 10 1011.3 - 0.0
20/05:00pm 34.7 31.7 1.1 12 17.0 NW 6 9 3 5 1011.7 - 0.0
20/04:30pm 34.3 30.3 0.8 12 16.8 NW 11 19 6 10 1012.2 - 0.0
20/04:00pm 34.2 29.5 0.8 12 16.7 N 15 24 8 13 1012.6 - 0.0
20/03:30pm 33.6 29.2 0.3 12 16.5 N 13 20 7 11 1013.0 - 0.0
20/03:00pm 33.1 28.8 1.0 13 16.0 ENE 13 20 7 11 1013.6 1013.0 0.0
20/02:30pm 32.4 28.9 1.5 14 15.5 ENE 9 19 5 10 1014.1 - 0.0
20/02:00pm 33.3 29.6 2.2 14 15.9 ENE 11 24 6 13 1014.8 - 0.0
20/01:30pm 31.6 28.2 1.8 15 14.9 WSW 9 17 5 9 1015.2 - 0.0
20/01:00pm 30.6 27.4 2.8 17 14.1 E 9 17 5 9 1015.7 - 0.0
20/12:30pm 30.2 27.0 3.3 18 13.7 N 9 15 5 8 1016.1 - 0.0
20/12:00pm 29.9 27.0 4.5 20 13.2 E 9 17 5 9 1016.4 1015.8 0.0
20/11:30am 28.2 25.4 5.1 23 12.0 ESE 9 19 5 10 1016.9 - 0.0
20/11:00am 27.3 24.6 5.6 25 11.3 NE 9 20 5 11 1017.2 - 0.0
20/10:30am 25.5 22.5 7.6 32 9.6 E 13 19 7 10 1017.5 - 0.0
20/10:00am 24.1 21.1 7.7 35 8.7 E 13 19 7 10 1018.1 - 0.0
20/09:30am 22.7 19.5 8.4 40 7.6 E 15 19 8 10 1018.2 - 0.0
20/09:00am 20.6 17.0 9.8 50 5.8 E 19 24 10 13 1018.4 1017.8 0.0
20/08:30am 19.0 15.4 10.6 58 4.6 E 20 28 11 15 1018.3 - 0.0
20/08:00am 16.7 13.2 10.8 68 3.2 E 20 26 11 14 1018.4 - 0.0
20/07:30am 15.7 12.7 10.7 72 2.7 E 17 24 9 13 1018.5 - 0.0
20/07:00am 14.5 11.1 10.5 77 2.1 E 19 24 10 13 1018.2 - 0.0
20/06:30am 13.8 10.4 10.4 80 1.8 E 19 24 10 13 1018.1 - 0.0
20/06:00am 13.7 11.0 10.3 80 1.8 E 15 20 8 11 1018.2 1017.6 0.0
20/05:30am 13.2 10.4 10.0 81 1.7 ESE 15 20 8 11 1018.0 - 0.0
20/05:00am 12.9 9.6 9.7 81 1.6 ESE 17 20 9 11 1017.9 - 0.0
20/04:30am 12.5 9.5 9.3 81 1.6 ESE 15 19 8 10 1017.9 - 0.0
20/04:00am 12.9 9.9 9.4 79 1.8 ESE 15 19 8 10 1017.9 - 0.0
20/03:30am 12.9 10.3 9.2 78 1.9 ESE 13 17 7 9 1018.2 - 0.0
20/03:00am 13.7 10.4 9.4 75 2.2 ESE 17 20 9 11 1018.3 1017.7 0.0
20/02:30am 14.1 10.4 9.5 74 2.4 ESE 19 26 10 14 1018.4 - 0.0
20/02:00am 14.5 10.6 9.5 72 2.6 ESE 20 28 11 15 1018.3 - 0.0
20/01:30am 14.6 10.6 9.2 70 2.8 ESE 20 28 11 15 1018.5 - 0.0
20/01:00am 15.0 10.9 8.7 66 3.2 SE 20 28 11 15 1019.0 - 0.0
20/12:30am 15.5 11.2 8.0 61 3.8 ESE 20 28 11 15 1019.4 - 0.0
20/12:00am 16.1 12.2 8.6 61 3.8 SE 19 26 10 14 1019.5 1018.9 0.0
 
Date/Time
CDT
Temp
°C
App
Temp
°C
Dew
Point
Rel
Hum
%
Delta-T
°C
Wind Press
QNH
hPa
Press
MSL
hPa
Rain
since 9 am
mm
Dir
 
Spd
km/h
Gust
km/h
Spd
kts
Gust
kts
19/11:30pm 16.4 12.8 8.4 59 4.1 SE 17 24 9 13 1019.8 - 0.0
19/11:00pm 16.9 13.0 8.6 58 4.3 SSE 19 24 10 13 1020.0 - 0.0
19/10:30pm 17.4 12.9 8.5 56 4.6 SSE 22 28 12 15 1019.9 - 0.0
19/10:00pm 18.0 13.4 8.0 52 5.1 SSE 22 30 12 16 1019.7 - 0.0
19/09:30pm 19.0 14.3 7.8 48 5.8 S 22 30 12 16 1019.7 - 0.0
19/09:00pm 20.1 15.0 7.5 44 6.5 S 24 32 13 17 1019.4 1018.8 0.0
19/08:30pm 21.4 16.0 6.5 38 7.6 S 24 33 13 18 1019.2 - 0.0
19/08:00pm 23.1 17.3 6.4 34 8.6 S 26 33 14 18 1019.0 - 0.0
19/07:30pm 24.8 18.6 6.1 30 9.7 S 28 39 15 21 1018.7 - 0.0
19/07:00pm 26.3 20.4 5.8 27 10.7 S 26 35 14 19 1018.4 - 0.0
19/06:30pm 26.6 20.3 5.5 26 10.9 S 28 43 15 23 1018.1 - 0.0
19/06:00pm 27.1 21.4 4.8 24 11.4 S 24 39 13 21 1018.0 1017.4 0.0
19/05:30pm 27.9 22.3 5.5 24 11.7 SSW 24 33 13 18 1018.0 - 0.0
19/05:00pm 27.5 22.9 1.8 19 12.5 SE 15 26 8 14 1018.5 - 0.0
19/04:30pm 27.6 22.8 0.4 17 13.0 SSW 15 24 8 13 1018.8 - 0.0
19/04:00pm 27.0 21.9 0.7 18 12.5 S 17 30 9 16 1019.2 - 0.0
19/03:30pm 26.9 22.0 -0.2 17 12.7 SSE 15 28 8 15 1019.5 - 0.0
19/03:00pm 26.5 21.4 1.0 19 12.1 SSE 17 28 9 15 1019.8 1019.2 0.0
19/02:30pm 25.3 20.5 0.0 19 11.8 S 15 24 8 13 1020.1 - 0.0
19/02:00pm 24.7 20.2 -0.4 19 11.5 SSE 13 22 7 12 1020.4 - 0.0
19/01:30pm 24.1 19.2 -0.2 20 11.1 SSE 15 26 8 14 1020.8 - 0.0
19/01:00pm 23.6 18.9 0.7 22 10.6 S 15 24 8 13 1021.1 - 0.0
19/12:30pm 22.2 17.4 0.1 23 10.0 SSE 15 20 8 11 1021.2 - 0.0
19/12:00pm 22.0 18.4 2.7 28 9.2 SSE 11 24 6 13 1021.4 1020.8 0.0
19/11:30am 21.7 16.8 3.9 31 8.7 SSE 19 26 10 14 1021.3 - 0.0
19/11:00am 20.0 15.6 4.9 37 7.4 SE 17 24 9 13 1021.5 - 0.0
19/10:30am 19.0 14.2 5.5 41 6.7 SSE 20 26 11 14 1021.5 - 0.0
19/10:00am 18.0 13.8 5.9 45 6.0 SE 17 22 9 12 1021.7 - 0.0
19/09:30am 18.0 13.6 6.5 47 5.7 SE 19 28 10 15 1021.6 - 0.0
19/09:00am 16.5 12.1 6.6 52 4.9 SE 19 26 10 14 1021.6 1021.0 0.0
19/08:30am 15.6 11.7 6.9 56 4.3 SE 17 20 9 11 1021.5 - 0.0
19/08:00am 14.0 11.0 7.5 65 3.2 SE 13 19 7 10 1021.1 - 0.0
19/07:30am 12.2 9.6 7.9 75 2.1 ESE 11 13 6 7 1020.6 - 0.0
19/07:00am 10.9 8.3 7.6 80 1.6 SE 11 13 6 7 1020.3 - 0.0
19/06:30am 9.3 6.4 6.7 84 1.2 SE 11 13 6 7 1020.0 - 0.0
19/06:00am 9.7 6.9 7.0 83 1.3 ESE 11 13 6 7 1019.9 1019.3 0.0
19/05:30am 9.8 7.0 7.1 83 1.3 ESE 11 13 6 7 1019.8 - 0.0
19/05:00am 10.0 7.3 7.4 84 1.2 ESE 11 13 6 7 1019.7 - 0.0
19/04:30am 9.9 7.2 7.2 83 1.3 ESE 11 13 6 7 1019.6 - 0.0
19/04:00am 10.3 8.0 7.4 82 1.4 SE 9 9 5 5 1019.5 - 0.0
19/03:30am 10.3 7.9 7.2 81 1.5 SE 9 11 5 6 1019.3 - 0.0
19/03:00am 11.1 8.7 7.2 77 1.9 SE 9 13 5 7 1019.2 1018.6 0.0
19/02:30am 12.6 9.4 8.5 76 2.1 S 15 19 8 10 1019.3 - 0.0
19/02:00am 13.0 9.8 8.5 74 2.3 S 15 19 8 10 1019.5 - 0.0
19/01:30am 13.3 10.1 8.6 73 2.4 S 15 20 8 11 1019.6 - 0.0
19/01:00am 13.8 9.9 8.6 71 2.6 S 19 24 10 13 1019.6 - 0.0
19/12:30am 14.2 11.1 8.8 70 2.8 SSE 15 22 8 12 1019.6 - 0.0
19/12:00am 14.5 11.2 8.2 66 3.2 S 15 19 8 10 1019.7 1019.1 0.0
 
Date/Time
CDT
Temp
°C
App
Temp
°C
Dew
Point
Rel
Hum
%
Delta-T
°C
Wind Press
QNH
hPa
Press
MSL
hPa
Rain
since 9 am
mm
Dir
 
Spd
km/h
Gust
km/h
Spd
kts
Gust
kts
18/11:30pm 14.7 11.4 8.2 65 3.3 S 15 22 8 12 1019.7 - 0.0
18/11:00pm 15.1 12.3 8.6 65 3.3 S 13 17 7 9 1019.6 - 0.0
18/10:30pm 15.6 12.4 8.4 62 3.7 S 15 20 8 11 1019.3 - 0.0
18/10:00pm 16.3 12.1 8.3 59 4.1 S 20 30 11 16 1019.0 - 0.0
18/09:30pm 17.1 13.0 8.0 55 4.7 S 19 28 10 15 1018.6 - 0.0
18/09:00pm 17.8 13.4 7.5 51 5.2 S 20 30 11 16 1018.3 1017.7 0.0
18/08:30pm 18.6 13.7 6.8 46 6.0 S 22 32 12 17 1018.1 - 0.0
18/08:00pm 19.5 14.3 7.3 45 6.3 S 24 35 13 19 1017.6 - 0.0
18/07:30pm 20.7 15.7 8.0 44 6.6 SSW 24 33 13 18 1017.0 - 0.0
18/07:00pm 20.6 14.7 7.6 43 6.7 SSW 28 37 15 20 1016.6 - 0.0
18/06:30pm 21.8 16.2 7.2 39 7.6 SSW 26 37 14 20 1016.3 - 0.0
18/06:00pm 22.0 16.3 8.2 41 7.3 SSW 28 39 15 21 1015.8 1015.2 0.0
18/05:30pm 22.5 16.3 7.9 39 7.7 SSW 30 39 16 21 1015.6 - 0.0
18/05:00pm 23.2 18.0 7.3 36 8.3 S 24 37 13 20 1015.5 - 0.0
18/04:30pm 23.5 18.1 6.3 33 8.9 SW 24 37 13 20 1015.4 - 0.0
18/04:00pm 24.0 17.8 6.3 32 9.2 SSW 28 37 15 20 1015.4 - 0.0
18/03:30pm 23.7 18.3 6.5 33 8.9 SSW 24 39 13 21 1015.0 - 0.0
18/03:00pm 24.6 18.8 6.4 31 9.5 SW 26 35 14 19 1014.9 1014.3 0.0
18/02:30pm 24.6 19.1 7.7 34 9.0 SSW 26 41 14 22 1014.8 - 0.0
18/02:00pm 23.4 18.2 7.1 35 8.5 SW 24 35 13 19 1015.1 - 0.0
18/01:30pm 24.6 19.6 8.1 35 8.8 SSW 24 35 13 19 1015.1 - 0.0
18/01:00pm 23.5 18.6 6.7 34 8.7 SW 22 32 12 17 1015.2 - 0.0
18/12:30pm 23.4 18.5 7.1 35 8.5 SSW 22 32 12 17 1015.1 - 0.0
18/12:00pm 23.2 18.1 7.7 37 8.2 SW 24 33 13 18 1015.2 1014.6 0.0
18/11:30am 21.8 17.5 8.0 41 7.3 SSW 20 30 11 16 1015.0 - 0.0
18/11:00am 22.3 18.2 8.8 42 7.2 SW 20 28 11 15 1014.9 - 0.0
18/10:30am 20.5 16.6 8.8 47 6.2 SSW 19 30 10 16 1014.9 - 0.0
18/10:00am 20.2 15.8 7.6 44 6.5 SSW 20 28 11 15 1014.9 - 0.0
18/09:30am 19.7 16.3 9.0 50 5.7 SW 17 26 9 14 1014.7 - 0.0
18/09:00am 18.1 15.1 9.2 56 4.7 SW 15 24 8 13 1014.6 1014.0 0.0
18/08:30am 16.8 15.3 10.4 66 3.4 SW 9 13 5 7 1014.4 - 0.0
18/08:00am 16.1 14.6 9.3 64 3.5 WSW 7 11 4 6 1014.0 - 0.0
18/07:30am 14.5 14.2 8.5 67 3.0 CALM 0 0 0 0 1013.5 - 0.0
18/07:00am 12.5 12.0 8.0 74 2.2 CALM 0 0 0 0 1013.2 - 0.0
18/06:30am 11.1 10.3 8.1 82 1.5 SE 2 6 1 3 1012.7 - 0.0
18/06:00am 10.6 8.6 7.1 79 1.7 SSE 7 9 4 5 1012.2 1011.6 0.0
18/05:30am 10.8 8.4 7.1 78 1.8 SE 9 11 5 6 1011.8 - 0.0
18/05:00am 10.7 8.2 6.6 76 1.9 SE 9 11 5 6 1011.3 - 0.0
18/04:30am 10.9 8.5 7.0 77 1.9 ESE 9 11 5 6 1011.2 - 0.0
18/04:00am 10.3 7.3 6.1 75 2.0 SE 11 13 6 7 1010.7 - 0.0
18/03:30am 11.1 8.3 6.8 75 2.1 ESE 11 13 6 7 1010.6 - 0.0
18/03:00am 10.7 8.1 6.1 73 2.2 SE 9 11 5 6 1010.5 1009.9 0.0
18/02:30am 10.8 8.7 5.8 71 2.3 S 6 9 3 5 1010.9 - 0.0
18/02:00am 11.3 8.7 6.0 70 2.5 S 9 13 5 7 1010.7 - 0.0
18/01:30am 10.9 8.5 5.2 68 2.6 SSE 7 9 4 5 1010.6 - 0.0
18/01:00am 11.7 8.8 6.4 70 2.5 ESE 11 13 6 7 1010.5 - 0.0
18/12:30am 11.3 8.3 5.8 69 2.6 SE 11 11 6 6 1010.7 - 0.0
18/12:00am 11.6 8.9 5.7 67 2.8 SE 9 11 5 6 1010.7 1010.1 0.0
 
Date/Time
CDT
Temp
°C
App
Temp
°C
Dew
Point
Rel
Hum
%
Delta-T
°C
Wind Press
QNH
hPa
Press
MSL
hPa
Rain
since 9 am
mm
Dir
 
Spd
km/h
Gust
km/h
Spd
kts
Gust
kts
17/11:30pm 12.1 9.8 5.9 66 2.9 SE 7 11 4 6 1010.6 - 0.0
17/11:00pm 13.2 10.7 6.5 64 3.2 S 9 11 5 6 1010.7 - 0.0

Other Formats:

Comma delimited format used in spreadsheet applications
http://www.bom.gov.au/fwo/IDS60801/IDS60801.95662.axf

JavaScript Object Notation format (JSON) in row-major order
http://www.bom.gov.au/fwo/IDS60801/IDS60801.95662.json